[[{"header":{"parameterUnit":"m.s-1","parameterCategory":1,"la1":30.2991,"la2":30.254,"lo1":-89.0895,"lo2":-89.0444,"dy":0.0017,"dx":0.0017,"nx":28,"ny":28,"refTime":"2024-04-13T21:00:00:Z","depth":0,"parameterNumber":2,"parameterNumberName":"U-component_of_WINDS"},"data":[0,0,0,0,0,0,0,0,0,0,0,0,0,0,0,0,0,0,0,0,0,0,0,0,0,0,0,0,0,0,0,0,0,0,0,0,0,0,0,0,0,0,0,0,0,0,0,0,0,0,0,0,0,0,0,0,0,0,-1.4754,-1.4753,0,-1.4723,-1.4723,-1.4722,-1.468,-1.4679,-1.4678,-1.4678,-1.4646,-1.4646,-1.4645,0,0,0,0,0,0,0,0,0,0,0,0,0,-1.4776,-1.4776,-1.4754,-1.4753,-1.4753,-1.4723,-1.4723,-1.4722,-1.468,-1.4679,-1.4678,-1.4677,-1.4646,-1.4646,-1.4645,0,0,0,0,0,0,0,0,0,0,0,0,0,-1.4758,-1.4776,-1.4754,-1.4728,-1.4725,-1.4723,-1.4723,-1.4722,-1.468,-1.4679,-1.4678,-1.4677,-1.4646,-1.4646,-1.4645,-1.4665,0,0,-1.4645,-1.4644,0,0,0,0,0,0,0,0,-1.4759,-1.4757,-1.4732,-1.473,-1.4727,-1.4704,-1.4719,-1.4703,-1.468,-1.4697,-1.4678,-1.4676,-1.4666,-1.4664,-1.4661,-1.4664,-1.4663,-1.4645,-1.4644,-1.4644,-1.4644,0,0,0,0,0,0,0,-1.476,-1.4758,-1.4741,-1.4732,-1.4729,-1.4718,-1.4715,-1.4716,-1.4688,-1.4696,-1.4693,-1.469,-1.4664,-1.4661,-1.466,-1.4662,-1.4645,-1.4644,-1.4644,-1.4644,-1.4681,-1.4683,0,0,0,0,0,0,-1.4765,-1.476,-1.4742,-1.474,-1.4741,-1.4719,-1.4715,-1.4712,-1.4688,-1.4683,-1.469,-1.4688,-1.4662,-1.466,-1.4658,-1.468,-1.4644,-1.4644,-1.4644,-1.468,-1.4682,-1.4683,0,0,0,0,0,0,-1.4766,-1.4764,-1.4744,-1.4749,-1.4746,-1.472,-1.4718,-1.4712,-1.4709,-1.4684,-1.4679,-1.4692,-1.4661,-1.4659,-1.4664,-1.4679,-1.4644,-1.4644,-1.4679,-1.4681,-1.4682,-1.4724,0,0,0,0,0,0,-1.4767,-1.4765,-1.4772,-1.475,-1.4746,-1.475,-1.4718,-1.4713,-1.4709,-1.4705,-1.4684,-1.468,-1.466,-1.4665,-1.4664,-1.4678,-1.4643,-1.4677,-1.468,-1.4682,-1.4721,-1.4727,-1.4732,0,0,0,0,0,-1.4768,-1.4784,-1.4772,-1.477,-1.4754,-1.4751,-1.4748,-1.4726,-1.471,-1.4717,-1.4701,-1.468,-1.4678,-1.4666,-1.4664,-1.4678,-1.4676,-1.4679,-1.4682,-1.4719,-1.4726,-1.4732,0,0,0,0,0,0,-1.4808,-1.4781,-1.4767,-1.4777,-1.4767,-1.4744,-1.4751,-1.4734,-1.4727,-1.4724,-1.4696,-1.4691,-1.4701,-1.469,-1.4677,-1.4697,-1.4674,-1.4676,-1.4703,-1.4709,-1.4715,-1.4716,-1.4643,0,0,0,0,0,-1.4818,-1.4818,-1.4794,-1.4805,-1.4801,-1.4778,-1.4775,-1.4759,-1.4747,-1.4742,-1.4726,-1.4716,-1.4712,-1.471,-1.4706,-1.4721,-1.4716,-1.473,-1.4735,-1.474,-1.4741,-1.4749,-1.4755,-1.4691,-1.4691,-1.4691,0,0,-1.4839,-1.4824,-1.4825,-1.4813,-1.4803,-1.4804,-1.4774,-1.4775,-1.4775,-1.4742,-1.4746,-1.4735,-1.4721,-1.4731,-1.4735,-1.4723,-1.4758,-1.4743,-1.4747,-1.4746,-1.4752,-1.4758,-1.4764,-1.4693,-1.4693,-1.4693,0,0,-1.4876,-1.4866,-1.4874,-1.4865,-1.485,-1.4835,-1.4837,-1.4817,-1.4808,-1.4812,-1.4788,-1.4788,-1.4783,-1.4774,-1.4769,-1.4806,-1.4786,-1.4806,-1.4833,-1.484,-1.4845,-1.485,-1.4863,-1.4868,-1.4808,-1.4808,-1.4808,0,-1.4904,-1.4903,-1.488,-1.4883,-1.4879,-1.485,-1.4858,-1.4851,-1.4836,-1.4833,-1.482,-1.4814,-1.4803,-1.4811,-1.482,-1.4817,-1.4819,-1.4807,-1.4847,-1.4851,-1.4854,-1.4866,-1.4871,-1.481,-1.481,-1.481,-1.481,0,-1.4938,-1.4938,-1.4946,-1.4933,-1.493,-1.4936,-1.4914,-1.4914,-1.4898,-1.4885,-1.489,-1.4876,-1.4868,-1.4869,-1.4854,-1.4876,-1.4869,-1.4852,-1.4828,-1.4863,-1.4874,-1.4878,-1.4814,-1.4813,-1.4812,-1.4812,0,0,-1.4997,-1.4973,-1.4976,-1.497,-1.4953,-1.4953,-1.4958,-1.4951,-1.4952,-1.4943,-1.4947,-1.4944,-1.4929,-1.4923,-1.4907,-1.4914,-1.4945,-1.4896,-1.4896,-1.4905,-1.4968,-1.498,-1.4986,-1.4933,-1.4934,-1.4934,-1.4969,0,-1.5031,-1.5038,-1.5018,-1.503,-1.5031,-1.5004,-1.5009,-1.5,-1.4988,-1.4986,-1.4973,-1.4972,-1.4952,-1.4948,-1.4954,-1.494,-1.4957,-1.4937,-1.4936,-1.4936,-1.4938,-1.4991,-1.5004,-1.5037,-1.4973,-1.4974,-1.4974,0,-1.507,-1.5064,-1.5076,-1.506,-1.5059,-1.5064,-1.5057,-1.5056,-1.5045,-1.5036,-1.5031,-1.5013,-1.5018,-1.4996,-1.5002,-1.499,-1.4988,-1.4982,-1.4982,-1.498,-1.4956,-1.499,-1.5047,-1.5052,-1.4981,-1.498,-1.498,0,-1.5112,-1.5107,-1.5114,-1.511,-1.5091,-1.5095,-1.5087,-1.5075,-1.5073,-1.5067,-1.5065,-1.506,-1.5057,-1.5054,-1.5035,-1.5021,-1.5044,-1.5021,-1.5036,-1.5037,-1.504,-1.504,-1.5097,-1.5042,-1.5042,-1.5042,-1.5042,0,-1.515,-1.5159,-1.5132,-1.5136,-1.5146,-1.5124,-1.5134,-1.5123,-1.5114,-1.5116,-1.5093,-1.5096,-1.5071,-1.5071,-1.5057,-1.5064,-1.5063,-1.5056,-1.5052,-1.5057,-1.5058,-1.5055,-1.5052,-1.5043,-1.5043,-1.5042,-1.5042,0,-1.5198,-1.518,-1.5186,-1.5168,-1.5164,-1.5172,-1.5157,-1.516,-1.5148,-1.5151,-1.515,-1.513,-1.5129,-1.5111,-1.5106,-1.5097,-1.511,-1.5102,-1.5113,-1.511,-1.5126,-1.5125,-1.5182,-1.5189,-1.513,-1.5131,-1.5131,0,-1.5223,-1.5229,-1.5212,-1.5212,-1.5206,-1.5206,-1.5204,-1.5183,-1.5182,-1.5171,-1.5176,-1.5174,-1.517,-1.517,-1.5155,-1.5152,-1.5143,-1.5164,-1.5142,-1.5148,-1.5143,-1.5142,-1.5143,-1.5168,-1.5168,-1.5169,-1.517,0,-1.5269,-1.5261,-1.5258,-1.5254,-1.5252,-1.5247,-1.5241,-1.5242,-1.522,-1.522,-1.5219,-1.5217,-1.5212,-1.521,-1.5204,-1.5197,-1.518,-1.5177,-1.518,-1.5185,-1.5191,-1.5187,-1.5124,-1.5175,-1.5175,-1.5174,-1.5174,-1.5174,-1.5305,-1.531,-1.5299,-1.5298,-1.5291,-1.5287,-1.5289,-1.5278,-1.5276,-1.5271,-1.526,-1.5261,-1.5251,-1.5242,-1.5236,-1.5237,-1.5226,-1.5231,-1.5232,-1.5233,-1.5236,-1.5192,-1.5236,-1.5236,-1.5236,-1.5235,-1.5235,0,-1.535,-1.5343,-1.5342,-1.5334,-1.5333,-1.5318,-1.5311,-1.5312,-1.5313,-1.5306,-1.5303,-1.5303,-1.5301,-1.5287,-1.5284,-1.5288,-1.528,-1.5287,-1.5286,-1.5285,-1.5246,-1.5243,-1.5294,-1.5294,-1.5294,-1.5294,-1.5294,-1.5294,-1.5373,-1.538,-1.5371,-1.5375,-1.5367,-1.5368,-1.5365,-1.5361,-1.5355,-1.5356,-1.5354,-1.5346,-1.5336,-1.5332,-1.533,-1.5326,-1.5326,-1.5336,-1.533,-1.5293,-1.5288,-1.5282,-1.5279,-1.5336,-1.5337,-1.5368,-1.5368,-1.5369]},{"header":{"parameterUnit":"m.s-1","parameterCategory":1,"la1":30.2991,"la2":30.254,"lo1":-89.0895,"lo2":-89.0444,"dy":0.0017,"dx":0.0017,"nx":28,"ny":28,"refTime":"2024-04-13T21:00:00:Z","depth":0,"parameterNumber":3,"parameterNumberName":"V-component_of_WINDS"},"data":[0,0,0,0,0,0,0,0,0,0,0,0,0,0,0,0,0,0,0,0,0,0,0,0,0,0,0,0,0,0,0,0,0,0,0,0,0,0,0,0,0,0,0,0,0,0,0,0,0,0,0,0,0,0,0,0,0,0,3.9169,3.9169,0,3.9142,3.9142,3.9142,3.9171,3.9172,3.9173,3.9174,3.9141,3.9139,3.9137,0,0,0,0,0,0,0,0,0,0,0,0,0,3.9243,3.9241,3.9169,3.9169,3.9169,3.9142,3.9142,3.9141,3.9171,3.9172,3.9173,3.9175,3.9141,3.9139,3.9137,0,0,0,0,0,0,0,0,0,0,0,0,0,3.9213,3.9241,3.9169,3.918,3.9181,3.9142,3.9142,3.9141,3.917,3.9172,3.9174,3.9175,3.9142,3.9139,3.9136,3.9084,0,0,3.9128,3.9126,0,0,0,0,0,0,0,0,3.9214,3.921,3.9179,3.9179,3.918,3.9162,3.9156,3.9122,3.917,3.9174,3.9174,3.9176,3.9146,3.9143,3.9134,3.9083,3.9081,3.9127,3.9126,3.9124,3.9123,0,0,0,0,0,0,0,3.9216,3.9211,3.9158,3.9178,3.9179,3.9185,3.9183,3.9149,3.9151,3.9174,3.9176,3.9173,3.9147,3.9137,3.9133,3.9081,3.9127,3.9125,3.9123,3.9122,3.8988,3.8986,0,0,0,0,0,0,3.9218,3.9213,3.9159,3.9158,3.9202,3.9182,3.918,3.9166,3.9151,3.9151,3.9171,3.9174,3.9141,3.9137,3.9132,3.9072,3.9124,3.9122,3.912,3.899,3.8987,3.8986,0,0,0,0,0,0,3.9219,3.9213,3.916,3.9186,3.918,3.9179,3.9163,3.9164,3.9154,3.9149,3.9149,3.9161,3.9142,3.9136,3.9097,3.9071,3.912,3.9118,3.8992,3.8989,3.8986,3.895,0,0,0,0,0,0,3.9221,3.9213,3.9194,3.9185,3.9178,3.9126,3.9162,3.9163,3.915,3.9154,3.914,3.9139,3.9143,3.9101,3.9094,3.9068,3.9115,3.8994,3.8991,3.8987,3.8953,3.8946,3.894,0,0,0,0,0,3.9224,3.9183,3.9193,3.9186,3.9155,3.9125,3.9121,3.9128,3.9148,3.9128,3.9125,3.9139,3.9075,3.9097,3.9089,3.9062,3.8996,3.8992,3.8988,3.8956,3.8947,3.894,0,0,0,0,0,0,3.9186,3.9182,3.9193,3.9148,3.9137,3.913,3.9105,3.9118,3.9099,3.9103,3.9111,3.9107,3.9066,3.906,3.9084,3.9012,3.9039,3.9033,3.9017,3.9009,3.9002,3.9005,3.9113,0,0,0,0,0,3.9173,3.9151,3.9148,3.9109,3.9103,3.9105,3.9092,3.9099,3.9087,3.9082,3.9076,3.9062,3.9039,3.9024,3.9002,3.8953,3.895,3.893,3.8923,3.8918,3.8913,3.8888,3.8879,3.8972,3.8972,3.8972,0,0,3.9145,3.914,3.9125,3.9101,3.9093,3.9069,3.9101,3.9073,3.9056,3.9077,3.9041,3.9036,3.9021,3.8977,3.8957,3.897,3.8887,3.8913,3.8908,3.8906,3.8882,3.8874,3.8866,3.8969,3.897,3.897,0,0,3.9082,3.9076,3.9044,3.9036,3.9025,3.9027,3.9019,3.9011,3.9009,3.8973,3.8989,3.8967,3.8927,3.8917,3.8906,3.8842,3.8854,3.8834,3.88,3.8775,3.8768,3.8761,3.8739,3.8731,3.8829,3.8829,3.8829,0,3.9048,3.9014,3.9025,3.8998,3.8987,3.9008,3.8975,3.8966,3.8948,3.8939,3.8955,3.8907,3.8898,3.8853,3.8838,3.8828,3.8819,3.8836,3.8768,3.8762,3.8756,3.8735,3.8727,3.8827,3.8827,3.8827,3.8828,0,3.8974,3.895,3.8925,3.891,3.8896,3.8866,3.8871,3.8856,3.8864,3.8865,3.8828,3.8819,3.8797,3.8787,3.8793,3.8743,3.8751,3.8767,3.8795,3.8745,3.8725,3.8717,3.8824,3.8824,3.8825,3.8826,0,0,3.8885,3.8878,3.8869,3.8863,3.8853,3.8834,3.8805,3.8786,3.8773,3.8759,3.8735,3.8702,3.8718,3.8706,3.8712,3.869,3.8642,3.8709,3.8709,3.8698,3.8586,3.8575,3.8566,3.865,3.8649,3.8647,3.8588,0,3.8823,3.8775,3.8785,3.8737,3.8716,3.8737,3.8712,3.8702,3.8702,3.8683,3.8682,3.8659,3.8681,3.8674,3.8654,3.8652,3.8619,3.8656,3.8627,3.8626,3.8631,3.8555,3.8542,3.8487,3.858,3.8579,3.8578,0,3.8744,3.8731,3.8682,3.8678,3.8669,3.8646,3.8631,3.8612,3.8602,3.8604,3.8592,3.8602,3.8573,3.8601,3.8561,3.8586,3.8575,3.8572,3.857,3.8568,3.8599,3.8551,3.8469,3.8461,3.8566,3.8567,3.8568,0,3.8686,3.8655,3.8623,3.8617,3.861,3.8594,3.8591,3.8583,3.8571,3.8557,3.8549,3.8531,3.852,3.8506,3.8511,3.8531,3.847,3.8498,3.847,3.847,3.8456,3.8457,3.8372,3.8448,3.8448,3.8448,3.8449,0,3.8616,3.8585,3.8597,3.8577,3.8544,3.8555,3.8521,3.852,3.8513,3.8492,3.8508,3.8488,3.8496,3.8477,3.848,3.8447,3.8442,3.8442,3.8444,3.8441,3.8441,3.8434,3.8438,3.8446,3.8447,3.8447,3.8447,0,3.8544,3.8551,3.8518,3.8515,3.8514,3.849,3.8487,3.8468,3.8471,3.8445,3.8439,3.8442,3.842,3.8424,3.8398,3.8401,3.836,3.8366,3.8364,3.8366,3.8338,3.8341,3.8245,3.8234,3.8317,3.8316,3.8316,0,3.85,3.8477,3.8474,3.8462,3.8458,3.8439,3.8428,3.8439,3.8427,3.8415,3.8397,3.8378,3.8362,3.8326,3.8325,3.8306,3.8312,3.828,3.8309,3.8308,3.8313,3.8314,3.8313,3.8274,3.8273,3.8272,3.8272,0,3.842,3.8425,3.841,3.8396,3.8383,3.8372,3.8363,3.8352,3.8362,3.8347,3.8327,3.8315,3.8291,3.8271,3.8254,3.8249,3.8262,3.8263,3.8256,3.8253,3.8253,3.8254,3.8349,3.8265,3.8265,3.8266,3.8266,3.8267,3.8361,3.8343,3.8338,3.8321,3.8316,3.8307,3.829,3.8291,3.8275,3.8258,3.8264,3.8241,3.8233,3.8212,3.8205,3.8186,3.8198,3.8187,3.8184,3.8182,3.8179,3.8256,3.8183,3.8183,3.8183,3.8184,3.8184,0,3.8283,3.8282,3.8266,3.8254,3.824,3.8256,3.8246,3.8234,3.8214,3.8206,3.8192,3.8168,3.815,3.8148,3.813,3.8116,3.8121,3.8111,3.8112,3.8111,3.8169,3.8178,3.8107,3.8107,3.8107,3.8107,3.8107,3.8107,3.824,3.8211,3.8216,3.8184,3.8183,3.8162,3.8155,3.8147,3.8142,3.8116,3.8101,3.8101,3.8096,3.8079,3.8062,3.8062,3.8055,3.8043,3.8045,3.8099,3.8107,3.8114,3.8122,3.8041,3.8041,3.7989,3.7988,3.7988]}]]